Location: Peebles
(55.6412°N, 3.1714°W)
Time: 09:25:55
(UTC+01:00)

FENGYUN 1C DEB - Pass Details

Date: 04 July 2022
Orbit: 749 x 887 km, 98.1° (Epoch: 08 August)

Event Time Altitude Azimuth Distance (km) Brightness Sun altitude
Rises 03:04:08 0° 14° (NNE) 3,510 ? -8.2°
Reaches altitude 10° 03:06:34 10° 13° (NNE) 2,566 ? -8.1°
Maximum altitude 03:12:16 71° 290° (WNW) 935 ? -7.7°
Drops below altitude 10° 03:17:52 10° 208° (SSW) 2,511 ? -7.4°
Enters shadow 03:18:06 - 208° (SSW) 2,600 ? -7.4°
